{"data":{"norad_id":68647,"epoch":"2026-09-19T21:44:10.582656Z","epoch_age_seconds":114600,"freshness":"FRESH","line1":"1 68647U 26075M   26262.90567804  .00000044  00000+0  50020-4 0  9996","line2":"2 68647  88.9868 311.3249 0001910  86.8429 273.2941 13.51020270 22600","mean_motion":13.5102027,"eccentricity":0.000191,"inclination_deg":88.9868,"raan_deg":311.3249,"arg_perigee_deg":86.8429,"mean_anomaly_deg":273.2941,"bstar":5.002e-5,"rev_number":2260,"period_min":106.58611361915,"perigee_km":1067.084791594,"apogee_km":1069.9294096405,"semimajor_km":7446.6441006173,"source":"CELESTRAK","updated_at":"2026-09-20T09:00:24.370900Z"}}